TimeCST,TemperatureF,Dew PointF,Humidity,Sea Level PressureIn,VisibilityMPH,Wind Direction,Wind SpeedMPH,Gust SpeedMPH,PrecipitationIn,Events,Conditions,WindDirDegrees,DateUTC
12:53 AM,39.9,25.0,55,30.33,10.0,NW,5.8,-,N/A,,Clear,320,2013-01-17 06:53:00
1:53 AM,39.0,25.0,57,30.35,10.0,WSW,5.8,-,N/A,,Clear,250,2013-01-17 07:53:00
2:53 AM,37.9,26.1,62,30.36,10.0,West,5.8,-,N/A,,Clear,280,2013-01-17 08:53:00
3:53 AM,37.9,27.0,65,30.37,10.0,NNW,3.5,-,N/A,,Clear,340,2013-01-17 09:53:00
4:53 AM,37.0,27.0,67,30.38,10.0,West,3.5,-,N/A,,Clear,280,2013-01-17 10:53:00
5:53 AM,37.0,27.0,67,30.40,10.0,West,6.9,-,N/A,,Clear,270,2013-01-17 11:53:00
6:53 AM,35.1,27.0,72,30.42,10.0,West,4.6,-,N/A,,Clear,280,2013-01-17 12:53:00
7:53 AM,36.0,28.0,73,30.45,10.0,WNW,4.6,-,N/A,,Clear,300,2013-01-17 13:53:00
8:53 AM,42.1,28.9,60,30.47,10.0,West,4.6,-,N/A,,Clear,280,2013-01-17 14:53:00
9:53 AM,51.1,30.9,46,30.50,10.0,West,4.6,-,N/A,,Clear,270,2013-01-17 15:53:00
10:53 AM,57.9,30.9,36,30.50,10.0,Variable,4.6,-,N/A,,Clear,0,2013-01-17 16:53:00
11:53 AM,62.1,30.9,31,30.47,10.0,NNW,3.5,-,N/A,,Clear,330,2013-01-17 17:53:00
12:53 PM,66.0,30.9,27,30.43,10.0,North,9.2,-,N/A,,Clear,360,2013-01-17 18:53:00
1:53 PM,68.0,30.9,25,30.40,10.0,Variable,3.5,-,N/A,,Clear,0,2013-01-17 19:53:00
2:53 PM,69.1,30.0,23,30.39,10.0,Variable,5.8,-,N/A,,Clear,0,2013-01-17 20:53:00
3:53 PM,69.1,30.0,23,30.39,10.0,Variable,4.6,-,N/A,,Clear,0,2013-01-17 21:53:00
4:53 PM,69.1,30.0,23,30.40,10.0,North,4.6,-,N/A,,Clear,10,2013-01-17 22:53:00
5:53 PM,64.9,28.9,26,30.42,10.0,Calm,Calm,-,N/A,,Clear,0,2013-01-17 23:53:00
6:53 PM,57.0,33.1,40,30.44,10.0,Calm,Calm,-,N/A,,Clear,0,2013-01-18 00:53:00
7:53 PM,53.1,34.0,48,30.45,10.0,Calm,Calm,-,N/A,,Clear,0,2013-01-18 01:53:00
8:53 PM,52.0,33.1,49,30.46,10.0,SE,3.5,-,N/A,,Clear,130,2013-01-18 02:53:00
9:53 PM,48.9,35.1,59,30.47,10.0,Calm,Calm,-,N/A,,Clear,0,2013-01-18 03:53:00
10:53 PM,45.0,34.0,65,30.47,10.0,East,3.5,-,N/A,,Clear,80,2013-01-18 04:53:00
11:53 PM,48.0,34.0,58,30.46,10.0,ENE,4.6,-,N/A,,Clear,60,2013-01-18 05:53:00